Location: Lassen National Park
(40.5158°N, 121.4639°W)
Time: 02:13:43
(UTC-07:00)

Envisat - Visible Passes

Search period start: 19 October 2019 00:00
Search period end: 29 October 2019 00:00
Orbit: 764 x 766 km, 98.1° (Epoch: 19 October)

Date Brightness Start Highest point End Pass type
(mag) Time Alt. Az. Time Alt. Az. Time Alt. Az.
19 Oct 6.6 06:37:40 10° ENE 06:39:20 11° E 06:41:00 10° ESE visible
19 Oct 3.5 19:27:54 10° S 19:32:55 62° W 19:37:58 10° NNW visible
20 Oct 3.0 18:51:13 10° SSE 18:56:11 59° ENE 19:01:11 10° N visible
20 Oct 5.9 20:32:34 10° SW 20:35:34 16° W 20:38:35 10° NW visible
21 Oct 4.7 19:53:54 10° SSW 19:58:30 35° W 20:03:09 10° NNW visible
22 Oct 3.1 19:16:34 10° S 19:21:38 79° WSW 19:26:44 10° NNW visible
23 Oct 3.3 18:40:08 10° SE 18:44:57 46° ENE 18:49:49 10° N visible
23 Oct 5.6 20:20:31 10° SW 20:24:12 20° W 20:27:53 10° NW visible
24 Oct 6.2 06:50:34 10° NE 06:53:45 17° E 06:56:55 10° SE visible
24 Oct 4.2 19:42:21 10° S 19:47:11 44° W 19:52:03 10° NNW visible
25 Oct 2.9 19:05:18 10° SSE 19:10:23 82° ENE 19:15:29 10° N visible
25 Oct 6.2 20:48:46 10° WSW 20:50:00 11° W 20:51:12 10° WNW visible
26 Oct 3.5 18:29:08 10° SE 18:33:45 37° ENE 18:38:24 10° N visible
26 Oct 5.2 20:08:41 10° SSW 20:12:50 25° W 20:17:01 10° NW visible
27 Oct 6.4 06:40:08 10° ENE 06:42:22 13° E 06:44:35 10° ESE visible
27 Oct 3.7 19:30:55 10° S 19:35:53 57° W 19:40:54 10° NNW visible
28 Oct 3.0 18:54:07 10° SSE 18:59:08 65° ENE 19:04:10 10° N visible
28 Oct 6.0 20:35:56 10° WSW 20:38:35 14° W 20:41:15 10° WNW visible
